Regional Weather Roundup
Issued by NWS

Home | Current Version | Previous Version | Graphics & Text | Print | Product List | Glossary On
Versions: 1 2 3 4 5 6 7 8 9 10 11 12 13 14 15 16 17 18 19 20 21 22 23 24 25 26 27 28 29 30 31 32 33 34 35 36 37 38 39 40 41 42 43 44 45 46 47 48 49 50
159
ASUS45 KSLC 190810
RWRUT

UTAH REGIONAL WEATHER ROUNDUP
NATIONAL WEATHER SERVICE SALT LAKE CITY UT
200 AM MDT THU OCT 19 2017

UTZ001>011-023>025-190900-

NORTHERN UTAH

CITY           SKY/WX    TMP DP  RH WIND       PRES   REMARKS
BRIGHAM CITY   PTCLDY    37  27  67 CALM      30.06S
HILL AFB       CLEAR     50  17  27 E17       30.06F
LOGAN          PTCLDY    38  24  57 CALM      30.07F
OGDEN          CLEAR     47  20  34 S9        30.04F
SALT LAKE CITY PTCLDY    45  33  63 SE8       30.04F
TOOELE VALLEY  PTCLDY    43  23  45 CALM      30.05F
WENDOVER       MOCLDY    40  21  46 CALM      30.05F
WEST JORDAN    PTCLDY    48  27  43 SW5       30.06F

$$

UTZ011>015-024>027-190900-

CENTRAL/NORTHEAST UTAH

CITY           SKY/WX    TMP DP  RH WIND       PRES   REMARKS
PROVO AIRPORT  PTCLDY    42  31  64 CALM      30.08
MOAB/CANYONLAN PTCLDY    47  17  30 CALM      30.07F
DELTA          MOCLDY    43  27  52 E5        30.06F
PRICE          MOCLDY    49  12  22 N8        30.13F
ROOSEVELT      CLOUDY    36  23  60 W5        30.14F WCI  32
VERNAL         CLOUDY    42  17  36 NW3       30.13R

$$

UTZ013>016-019>022-027-190900-

SOUTHERN UTAH

CITY           SKY/WX    TMP DP  RH WIND       PRES   REMARKS
BRYCE CANYON   CLOUDY    42  25  50 W5        30.23S
CEDAR CITY     CLOUDY    47  23  38 CALM      30.09F
MILFORD        MOCLDY    44  12  27 S6        30.07F
ST GEORGE      PTSUNNY   62  27  26 CALM      29.98S
HANKSVILLE     CLOUDY    46  19  34 CALM      30.09F
BLANDING         N/A     52  17  25 N8        30.21S

$$

REGIONAL REPORTS     COLORADO/ARIZONA

CITY           SKY/WX    TMP DP  RH WIND       PRES   REMARKS
CRAIG, CO      CLOUDY    26  19  74 W3        30.19S
GRAND JUNCTION CLOUDY    49  20  31 SE8       30.11F
RIFLE, CO      CLOUDY    38  19  46 SE5       30.18S WCI  34
MONTROSE, CO   CLOUDY    40  20  44 S3        30.19S
CORTEZ, CO     CLOUDY    37  25  61 E3        30.17S
COLORADO CITY    N/A     52  28  40 SE5       30.09F
PAGE, AZ       MOCLDY    59  28  30 CALM      30.04S
GRAND CANYON   PTCLDY    39  24  55 CALM      30.18F
KINGMAN, AZ    PTCLDY    56  30  37 CALM      29.98F
FLAGSTAFF, AZ  MOCLDY    46  29  51 CALM      30.21F

$$

REGIONAL REPORTS    NEVADA/IDAHO/WYOMING

CITY           SKY/WX    TMP DP  RH WIND       PRES   REMARKS
LAS VEGAS, NV  MOCLDY    70  17  13 CALM      29.89F
ELY, NY        MOCLDY    37   8  30 S8        30.12F WCI  31
ELKO, NV       CLOUDY    33  17  51 E3        30.05F
POCATELLO, ID  CLOUDY    40  26  57 N6        30.01F
BURLEY, ID     CLEAR     51  19  28 SW15      29.96F
FORT BRIDGER,    N/A     50   8  18 S5        30.20S
EVANSTON, WY   CLOUDY    42  13  30 S7        30.18F
ROCK SPRINGS,  CLOUDY    40   9  28 CALM      30.17S
KEMMERER, WY   CLOUDY    32  19  59 N9        30.19F WCI  24

$$




USA.gov is the U.S. government's official web portal to all federal, state and local government web resources and services.